TimeMDT,TemperatureF,Dew PointF,Humidity,Sea Level PressureIn,VisibilityMPH,Wind Direction,Wind SpeedMPH,Gust SpeedMPH,PrecipitationIn,Events,Conditions,WindDirDegrees,DateUTC
12:55 AM,21.0,18.0,88,30.38,10.0,WNW,3.5,-,N/A,,Mostly Cloudy,300,2013-03-24 06:55:00
1:37 AM,21.2,19.4,93,30.27,10.0,Calm,Calm,-,N/A,,Overcast,0,2013-03-24 07:37:00
1:52 AM,21.2,19.4,93,30.27,10.0,Calm,Calm,-,N/A,,Overcast,0,2013-03-24 07:52:00
1:55 AM,21.9,19.0,89,30.37,10.0,Calm,Calm,-,N/A,,Overcast,0,2013-03-24 07:55:00
2:55 AM,23.0,19.9,88,30.38,10.0,Calm,Calm,-,N/A,,Overcast,0,2013-03-24 08:55:00
3:07 AM,23.0,19.4,86,30.28,10.0,Calm,Calm,-,N/A,,Overcast,0,2013-03-24 09:07:00
3:55 AM,21.9,19.0,89,30.38,10.0,Calm,Calm,-,N/A,,Overcast,0,2013-03-24 09:55:00
4:55 AM,21.0,18.0,88,30.39,10.0,Calm,Calm,-,N/A,,Overcast,0,2013-03-24 10:55:00
5:55 AM,19.0,16.0,88,30.41,10.0,Calm,Calm,-,N/A,,Mostly Cloudy,0,2013-03-24 11:55:00
6:07 AM,21.2,17.6,86,30.30,10.0,WNW,3.5,-,N/A,,Mostly Cloudy,290,2013-03-24 12:07:00
6:55 AM,23.0,18.0,81,30.41,10.0,Variable,4.6,-,N/A,,Overcast,0,2013-03-24 12:55:00
7:55 AM,21.9,18.0,85,30.43,10.0,Calm,Calm,-,N/A,,Overcast,0,2013-03-24 13:55:00
8:43 AM,24.8,17.6,74,30.32,10.0,NNE,5.8,-,N/A,,Overcast,20,2013-03-24 14:43:00
8:55 AM,24.1,17.1,75,30.43,10.0,NE,9.2,-,N/A,,Overcast,40,2013-03-24 14:55:00
9:15 AM,24.8,17.6,74,30.32,10.0,NNE,8.1,-,N/A,,Overcast,30,2013-03-24 15:15:00
9:55 AM,26.1,17.1,69,30.44,10.0,NNE,6.9,-,N/A,,Overcast,30,2013-03-24 15:55:00
10:28 AM,26.6,15.8,64,30.33,10.0,North,4.6,-,N/A,,Overcast,10,2013-03-24 16:28:00
10:55 AM,28.9,17.1,61,30.45,10.0,North,3.5,-,N/A,,Overcast,360,2013-03-24 16:55:00
11:55 AM,28.9,17.1,61,30.43,10.0,Calm,Calm,-,N/A,,Overcast,0,2013-03-24 17:55:00
12:17 PM,30.2,17.6,60,30.32,10.0,Calm,Calm,-,N/A,,Overcast,0,2013-03-24 18:17:00
12:55 PM,32.0,17.1,54,30.41,10.0,Variable,3.5,-,N/A,,Mostly Cloudy,0,2013-03-24 18:55:00
1:55 PM,33.1,17.1,52,30.39,10.0,Calm,Calm,-,N/A,,Mostly Cloudy,0,2013-03-24 19:55:00
2:55 PM,36.0,15.1,43,30.37,10.0,Calm,Calm,-,N/A,,Mostly Cloudy,0,2013-03-24 20:55:00
4:55 PM,37.9,17.1,43,30.33,10.0,South,6.9,-,N/A,,Mostly Cloudy,190,2013-03-24 22:55:00
5:55 PM,37.0,17.1,44,30.32,10.0,SSE,10.4,-,N/A,,Partly Cloudy,160,2013-03-24 23:55:00
6:55 PM,35.6,17.6,48,30.21,10.0,South,8.1,-,N/A,,Clear,180,2013-03-25 00:55:00
7:55 PM,30.9,17.1,57,30.30,10.0,South,3.5,-,N/A,,Mostly Cloudy,180,2013-03-25 01:55:00
8:55 PM,28.9,19.9,69,30.29,10.0,NNE,6.9,-,N/A,,Clear,30,2013-03-25 02:55:00
9:55 PM,24.1,19.0,81,30.30,10.0,Calm,Calm,-,N/A,,Clear,0,2013-03-25 03:55:00
10:55 PM,24.1,19.9,84,30.29,10.0,Calm,Calm,-,N/A,,Clear,0,2013-03-25 04:55:00
11:55 PM,21.0,17.1,85,30.30,10.0,Calm,Calm,-,N/A,,Overcast,0,2013-03-25 05:55:00